Find Starlink 11640

NORAD ID: 63314 Int'l Des: 2025-057 Owner: SPXS Country: US Constellation: starlink operational
又名: STARLINK-11640 [DTC] celestrak
LEOCIRCULAR

当前视图

正在加载3D地球...

About Starlink 11640

Starlink 11640 (NORAD 63314) is a starlink constellation satellite (v2 mini d2c) launched Mar 18, 2025 by SPXS of US. It operates in LEO, CIRCULAR orbit with a mass of 960.00 kg.

即将过境

Passes for default location (London). Set your location on the main map for personalized predictions.

高度历史

Loading altitude history...

两行轨道根数

1 63314U 25057H 26263.61902133 .00158264 00000-0 12102-2 0 9994
2 63314 42.9977 169.6782 0000494 256.5700 103.5113 15.70906196 87832
Epoch: Sep 20, 2026 • Age: 33 hours

当前状态

高度 364.7 km
远地点 / 近地点 N/A
速度 7.69 km/s
星下点 -34.84°S, 109.76°E
发射日期 Mar 18, 2025
运行时间 1.5 years
类型 internet

技术详情

分类 Payload
质量 960.00 kg
干质量 910.00 kg
长度 0.30 m
跨度 29.00 m
形状 ? Box + pan
制造商 SPXS
平台类型 Starlink V2MD
阶段状态 In Orbit
所有者/国家 SPXS/US

Most Searched